EDT,Max TemperatureF,Mean TemperatureF,Min TemperatureF,Max Dew PointF,MeanDew PointF,Min DewpointF,Max Humidity, Mean Humidity, Min Humidity, Max Sea Level PressureIn, Mean Sea Level PressureIn, Min Sea Level PressureIn, Max VisibilityMiles, Mean VisibilityMiles, Min VisibilityMiles, Max Wind SpeedMPH, Mean Wind SpeedMPH, Max Gust SpeedMPH,PrecipitationIn, CloudCover, Events, WindDirDegrees
2013-8-1,89,79,71,75,72,70,100,87,61,30.05,30.00,29.96,10,9,2,14,2,21,0.22,1,Rain-Thunderstorm,160
2013-8-2,93,81,71,77,72,70,100,80,52,30.06,30.00,29.94,10,9,3,10,3,,0.00,2,Rain,187
2013-8-3,93,81,71,77,73,72,100,80,52,30.08,30.04,30.00,10,9,4,16,2,22,0.05,2,Rain-Thunderstorm,258
2013-8-4,96,84,73,77,75,70,100,79,49,30.08,30.03,29.96,10,9,5,14,4,,0.01,2,Rain-Thunderstorm,260
2013-8-5,95,83,73,77,74,70,94,77,49,30.03,29.98,29.91,10,9,2,13,3,,0.35,2,Rain-Thunderstorm,269
2013-8-6,95,84,73,79,74,72,94,83,50,30.00,29.96,29.90,10,6,0,14,2,22,0.76,5,Fog-Rain-Thunderstorm,84
2013-8-7,95,83,73,76,73,68,100,80,46,30.02,29.97,29.93,10,8,3,14,3,17,0.01,2,Thunderstorm,99
2013-8-8,91,83,75,77,74,70,94,81,53,30.05,29.99,29.94,10,9,2,10,4,17,0.26,3,Rain-Thunderstorm,117
2013-8-9,95,83,73,75,71,63,94,71,38,30.09,30.04,29.98,10,10,10,8,4,,0.00,1,,119
2013-8-10,93,82,73,73,71,64,94,72,42,30.14,30.10,30.06,10,10,10,13,4,17,0.00,1,,156
2013-8-11,93,81,71,78,73,70,94,78,55,30.17,30.13,30.08,10,10,4,10,2,,0.01,2,Thunderstorm,186
2013-8-12,95,82,71,75,72,66,100,71,43,30.13,30.08,30.02,10,9,1,12,2,18,0.00,0,,247
2013-8-13,93,82,71,75,72,68,100,75,46,30.06,30.01,29.93,10,8,1,15,3,24,0.12,1,Rain,259
2013-8-14,93,81,71,77,73,72,100,81,53,29.99,29.95,29.90,10,8,1,15,3,22,0.00,1,Thunderstorm,231
2013-8-15,91,82,73,77,72,68,100,76,52,30.02,29.97,29.93,10,9,1,16,3,24,0.00,2,,202
2013-8-16,90,79,71,75,72,70,94,86,58,30.06,30.00,29.95,10,9,3,16,4,23,0.43,5,Rain-Thunderstorm,172
2013-8-17,90,79,69,76,72,68,94,85,62,30.13,30.05,29.99,10,9,2,13,3,22,1.35,4,Rain-Thunderstorm,120
2013-8-18,93,81,71,75,72,70,94,82,52,30.12,30.08,30.01,10,10,2,23,5,30,0.21,3,Rain-Thunderstorm,115
2013-8-19,90,80,71,77,73,70,100,83,55,30.10,30.05,29.99,10,10,7,10,2,,0.00,2,Rain-Thunderstorm,138
2013-8-20,91,81,71,75,72,69,94,84,55,30.12,30.07,29.99,10,9,1,10,3,,1.32,4,Rain-Thunderstorm,85
2013-8-21,91,81,71,75,71,68,94,86,53,30.16,30.12,30.08,10,10,1,18,2,31,0.36,1,Rain-Thunderstorm,76
2013-8-22,84,76,69,77,72,68,100,93,79,30.16,30.10,30.03,10,7,1,17,2,32,1.61,4,Rain-Thunderstorm,46
2013-8-23,89,78,69,76,71,68,100,88,62,30.07,30.03,29.99,10,10,7,10,2,,0.02,1,Rain-Thunderstorm,99
2013-8-24,87,78,71,75,71,70,94,84,67,30.15,30.09,30.01,10,10,10,8,3,,0.00,1,,49
2013-8-25,88,78,71,73,71,68,94,83,61,30.23,30.18,30.14,10,10,5,14,4,18,0.02,5,Rain,58
2013-8-26,91,79,69,71,67,63,88,71,43,30.22,30.15,30.07,10,10,7,10,5,18,0.00,2,,42
2013-8-27,90,80,71,74,71,66,94,79,51,30.13,30.06,30.00,10,10,2,9,3,,0.46,4,Rain,75
2013-8-28,89,80,71,74,72,70,100,79,57,30.07,30.03,29.99,10,10,5,14,4,16,0.02,5,Rain,205
2013-8-29,93,80,69,74,70,63,100,76,40,30.05,30.00,29.94,10,9,1,13,2,18,0.01,0,,294
2013-8-30,91,81,71,77,72,70,100,83,55,30.00,29.95,29.88,10,8,2,14,2,20,1.16,4,Rain-Thunderstorm,273
2013-8-31,89,78,69,75,72,70,100,83,62,29.98,29.93,29.88,10,7,0,12,2,17,0.02,3,Fog-Thunderstorm,203